Location: LDNL
(36.4545°S, 141.6685°E)
Time: 18:00:08
(UTC+10:00)

Tiros 1 despin weight - Pass Details

Date: 30 January 2022
Orbit: 592 x 639 km, 48.2° (Epoch: 28 May)

Event Time Altitude Azimuth Distance (km) Brightness Sun altitude
Exits shadow 05:16:55 21° 266° (W) 1,400 ? -16.5°
Maximum altitude 05:19:31 41° 207° (SSW) 908 ? -16.1°
Drops below altitude 10° 05:23:52 10° 136° (SE) 1,989 ? -15.4°
Sets 05:26:16 0° 128° (SE) 2,889 ? -15.0°
